World > North America > United States > Texas > Royse City  

Royse City, TX Hourly Weather Updates

Feedback E-mail the Weather

Quick Clicks

Royse City, TX Weather Maps

°F °C°F °C
Royse City Weather Map
UTC Time: 5/25/2024, 23:45
Your Time:

Royse City, TX Regional Weather

Expires:202405260000;;865880
ASUS44 KFWD 252315
RWRTX 
NORTH TEXAS HOURLY WEATHER ROUNDUP
NATIONAL WEATHER SERVICE FORT WORTH TX
600 PM CDT SAT MAY 25 2024

NOTE: "FAIR" INDICATES FEW OR NO CLOUDS BELOW 12,000 FEET WITH NO
SIGNIFICANT WEATHER AND/OR OBSTRUCTIONS TO VISIBILITY.


TXZ091>094-102>105-117-120-121-131>134-260000-
NORTH CENTRAL TEXAS
  
CITY           SKY/WX    TMP DP  RH WIND       PRES   REMARKS
SHRMAN/DENISON   N/A     82  75  78 SE9G18    29.73R HAZE             
GAINESVILLE    FAIR      81  79  94 E8        29.68F HX  90           
BOWIE          LGT RAIN  81  76  85 E9        29.65F                  
BRIDGEPORT     FAIR      88  75  66 SE9       29.68S HX  97           
DECATUR        FAIR      86  75  70 SE14      29.69R HX  95           
DENTON         FAIR      86  77  74 SE7       29.68S HAZE    HX  97   
MCKINNEY       PTSUNNY   84  77  79 SE10      29.70F HAZE    HX  94   
BONHAM         FAIR      82  79  90 SE5       29.74R FOG     HX  91   
GREENVILLE     PTSUNNY   83  80  89 E7        29.73S FOG     HX  96   
ROCKWALL       PTSUNNY   86  77  74 SE8       29.72S HX  97           
TERRELL        FAIR      87  77  72 SE9       29.72S HAZE    HX  99   
WAXAHACHIE     FAIR      87  78  75 SE10      29.70S HX 100           
CLEBURNE       SUNNY     86  79  79 SE12      29.68F HX  99           
GRANBURY       FAIR      87  75  68 SE16G25   29.64F HX  95           
$$


SKY/WX - Weather  TMP - Temperature  DP - Dew Point  RH - Humidity
WIND - Wind Direction/Speed PRES - Barometric Pressure VSB - Visibility
WCI - Wind Chill Index E13G22 Wind - East Wind 13 mph/Gusts of 22 mph

Trending Headlines

Trending Entertainment Headlines

Royse City Radar Loop

Use the map search tool if you want to place a location marker on the radar map...

Royse City Quick Facts

National Two Day Weather Forecast


E-mail the Royse City Weather Forecast

Voice your opinion or tell us about page issues...